| time (UTC) | temp F | wind direction | speed knots | gust knots | rain 1hr in | rain 24hr in | rain mn in | humidity % | barometer mb |
| 20260509022819 | 55 | 103 | 0.0 | 0.0 | 0.00 | 0.08 | 0.03 | 86 | 1006.6 |
| 20260509021746 | 55 | 103 | 0.0 | 0.0 | 0.00 | 0.08 | 0.03 | 86 | 1006.4 |
| 20260509020711 | 55 | 107 | 0.0 | 0.0 | 0.00 | 0.08 | 0.03 | 86 | 1006.5 |
| 20260509015640 | 56 | 71 | 0.0 | 0.0 | 0.00 | 0.08 | 0.03 | 85 | 1006.4 |
| 20260509013611 | 56 | 74 | 0.0 | 0.0 | 0.00 | 0.08 | 0.03 | 85 | 1006.3 |
| 20260509010400 | 56 | 51 | 0.0 | 0.0 | 0.00 | 0.08 | 0.03 | 83 | 1005.9 |
| 20260509005332 | 56 | 82 | 0.0 | 0.0 | 0.00 | 0.08 | 0.03 | 83 | 1005.9 |
| 20260509003222 | 57 | 86 | 0.0 | 0.0 | 0.00 | 0.08 | 0.03 | 82 | 1005.8 |
| 20260509002234 | 57 | 86 | 0.0 | 0.0 | 0.00 | 0.08 | 0.03 | 82 | 1005.9 |
| 20260509001225 | 57 | 53 | 0.0 | 0.0 | 0.00 | 0.08 | 0.03 | 82 | 1005.9 |
| 20260509000219 | 58 | 95 | 0.0 | 0.0 | 0.00 | 0.08 | 0.03 | 82 | 1005.9 |
| 20260508235205 | 58 | 73 | 0.0 | 0.0 | 0.00 | 0.08 | 0.03 | 81 | 1005.8 |
| 20260508234216 | 58 | 136 | 0.0 | 0.0 | 0.00 | 0.08 | 0.03 | 81 | 1005.9 |
| 20260508233208 | 58 | 98 | 0.0 | 0.0 | 0.00 | 0.08 | 0.03 | 81 | 1006.0 |
| 20260508232217 | 58 | 101 | 0.0 | 0.0 | 0.00 | 0.08 | 0.03 | 80 | 1006.1 |
| 20260508224916 | 58 | 148 | 0.0 | 0.0 | 0.00 | 0.08 | 0.03 | 81 | 1006.1 |
| 20260508223932 | 57 | 63 | 0.0 | 1.7 | 0.00 | 0.08 | 0.03 | 81 | 1006.3 |
| 20260508221804 | 57 | 138 | 0.0 | 0.0 | 0.00 | 0.08 | 0.03 | 82 | 1006.6 |
| 20260508215720 | 56 | 39 | 0.0 | 0.0 | 0.00 | 0.08 | 0.03 | 83 | 1006.5 |
| 20260508213520 | 56 | 15 | 0.0 | 0.0 | 0.00 | 0.08 | 0.03 | 84 | 1006.2 |
| 20260508212528 | 56 | 59 | 0.0 | 0.0 | 0.00 | 0.08 | 0.03 | 85 | 1006.3 |
| 20260508211518 | 56 | 75 | 0.0 | 0.0 | 0.00 | 0.08 | 0.03 | 84 | 1006.5 |
| 20260508210521 | 57 | 90 | 0.0 | 0.0 | 0.00 | 0.08 | 0.03 | 82 | 1006.8 |
| 20260508205514 | 58 | 29 | 0.0 | 0.0 | 0.00 | 0.07 | 0.02 | 78 | 1006.8 |
| 20260508203335 | 59 | 155 | 0.0 | 0.0 | 0.00 | 0.07 | 0.02 | 73 | 1006.8 |
| 20260508202332 | 59 | 155 | 0.0 | 0.0 | 0.00 | 0.07 | 0.02 | 72 | 1006.9 |
| 20260508201354 | 58 | 169 | 0.0 | 0.0 | 0.00 | 0.07 | 0.02 | 73 | 1007.0 |
| 20260508200329 | 59 | 169 | 0.0 | 0.0 | 0.00 | 0.07 | 0.02 | 73 | 1007.3 |
| 20260508195314 | 59 | 159 | 0.0 | 0.0 | 0.00 | 0.07 | 0.02 | 73 | 1007.4 |
| 20260508194312 | 58 | 167 | 0.0 | 0.0 | 0.00 | 0.07 | 0.02 | 72 | 1007.5 |
| 20260508193251 | 58 | 165 | 0.0 | 0.0 | 0.00 | 0.07 | 0.02 | 73 | 1007.7 |
| 20260508192316 | 58 | 166 | 0.0 | 0.0 | 0.00 | 0.07 | 0.02 | 73 | 1007.8 |
| 20260508190209 | 58 | 87 | 0.0 | 0.0 | 0.00 | 0.07 | 0.02 | 74 | 1008.0 |
| 20260508185151 | 58 | 103 | 0.0 | 0.0 | 0.00 | 0.07 | 0.02 | 74 | 1008.1 |
| 20260508184134 | 58 | 76 | 0.0 | 0.0 | 0.00 | 0.07 | 0.02 | 75 | 1008.1 |
| 20260508183154 | 58 | 83 | 0.0 | 0.0 | 0.00 | 0.07 | 0.02 | 73 | 1008.3 |
| 20260508182136 | 58 | 355 | 0.0 | 0.0 | 0.00 | 0.07 | 0.02 | 76 | 1008.4 |
| 20260508181155 | 57 | 5 | 0.0 | 0.0 | 0.00 | 0.07 | 0.02 | 77 | 1008.7 |
| 20260508180124 | 57 | 131 | 0.0 | 0.0 | 0.00 | 0.07 | 0.02 | 80 | 1008.8 |
| 20260508175110 | 55 | 121 | 0.0 | 0.0 | 0.00 | 0.07 | 0.02 | 80 | 1009.0 |
| 20260508174135 | 55 | 103 | 0.0 | 0.0 | 0.00 | 0.07 | 0.02 | 84 | 1009.1 |
| 20260508173117 | 54 | 113 | 0.0 | 0.0 | 0.00 | 0.07 | 0.02 | 84 | 1009.3 |
| 20260508172044 | 54 | 83 | 0.0 | 0.0 | 0.00 | 0.07 | 0.02 | 85 | 1009.5 |
| 20260508171032 | 54 | 42 | 0.0 | 0.0 | 0.00 | 0.07 | 0.02 | 84 | 1009.7 |
| 20260508170023 | 53 | 88 | 0.0 | 0.0 | 0.00 | 0.07 | 0.02 | 85 | 1009.8 |
| 20260508165039 | 53 | 103 | 0.0 | 0.0 | 0.00 | 0.07 | 0.02 | 85 | 1009.9 |
| 20260508164045 | 53 | 115 | 0.0 | 0.0 | 0.00 | 0.07 | 0.02 | 84 | 1010.2 |
| 20260508163029 | 54 | 166 | 0.0 | 0.0 | 0.00 | 0.07 | 0.02 | 83 | 1010.0 |
| 20260508160912 | 54 | 78 | 0.0 | 0.0 | 0.00 | 0.07 | 0.02 | 84 | 1010.1 |
| 20260508155930 | 54 | 70 | 0.0 | 0.0 | 0.00 | 0.07 | 0.02 | 86 | 1009.9 |
| 20260508153820 | 53 | 36 | 0.0 | 0.0 | 0.00 | 0.07 | 0.02 | 87 | 1010.1 |
| 20260508151634 | 52 | 0 | 0.0 | 0.0 | 0.00 | 0.07 | 0.02 | 89 | 1010.2 |
| 20260508145554 | 51 | 41 | 0.0 | 0.0 | 0.00 | 0.07 | 0.02 | 88 | 1010.4 |
| 20260508144553 | 51 | 109 | 0.0 | 0.0 | 0.00 | 0.06 | 0.01 | 88 | 1010.7 |
| 20260508142427 | 51 | 94 | 0.0 | 0.0 | 0.00 | 0.06 | 0.01 | 86 | 1010.9 |
| 20260508141435 | 52 | 130 | 0.0 | 0.0 | 0.00 | 0.06 | 0.01 | 86 | 1010.9 |
| 20260508140408 | 51 | 138 | 0.0 | 0.0 | 0.00 | 0.06 | 0.01 | 85 | 1010.7 |
| 20260508135419 | 51 | 112 | 0.0 | 0.0 | 0.00 | 0.06 | 0.01 | 85 | 1010.6 |
| 20260508134357 | 51 | 115 | 0.0 | 0.0 | 0.00 | 0.06 | 0.01 | 84 | 1010.6 |
| 20260508133350 | 51 | 114 | 0.0 | 0.0 | 0.00 | 0.06 | 0.01 | 85 | 1010.7 |
| 20260508132334 | 51 | 168 | 0.0 | 0.0 | 0.00 | 0.06 | 0.01 | 85 | 1010.7 |
| 20260508131332 | 50 | 35 | 0.0 | 0.0 | 0.00 | 0.06 | 0.01 | 85 | 1010.4 |
| 20260508130256 | 50 | 52 | 0.0 | 0.0 | 0.00 | 0.06 | 0.01 | 86 | 1010.5 |
| 20260508125310 | 50 | 114 | 0.0 | 0.0 | 0.00 | 0.06 | 0.01 | 86 | 1010.5 |
| 20260508124254 | 50 | 146 | 0.0 | 0.0 | 0.00 | 0.06 | 0.01 | 87 | 1010.4 |
| 20260508122136 | 49 | 55 | 0.0 | 0.0 | 0.00 | 0.06 | 0.01 | 88 | 1010.3 |
| 20260508120011 | 47 | 120 | 0.0 | 0.0 | 0.00 | 0.06 | 0.01 | 89 | 1010.3 |
| 20260508115035 | 47 | 119 | 0.0 | 0.0 | 0.00 | 0.06 | 0.01 | 90 | 1010.3 |
| 20260508112909 | 45 | 126 | 0.0 | 0.0 | 0.00 | 0.06 | 0.01 | 90 | 1010.0 |
| 20260508111926 | 44 | 126 | 0.0 | 0.0 | 0.00 | 0.06 | 0.01 | 90 | 1010.2 |
| 20260508105750 | 44 | 126 | 0.0 | 0.0 | 0.00 | 0.06 | 0.01 | 90 | 1009.9 |
| 20260508104759 | 44 | 126 | 0.0 | 0.0 | 0.00 | 0.06 | 0.01 | 90 | 1009.9 |
| 20260508103742 | 44 | 126 | 0.0 | 0.0 | 0.00 | 0.06 | 0.01 | 90 | 1009.5 |
| 20260508102733 | 44 | 126 | 0.0 | 0.0 | 0.00 | 0.05 | 0.00 | 90 | 1009.5 |
| 20260508101700 | 44 | 126 | 0.0 | 0.0 | 0.00 | 0.05 | 0.00 | 89 | 1009.3 |
| 20260508030456 | 48 | 303 | 0.0 | 0.0 | 0.05 | 0.06 | 0.06 | 87 | 1011.0 |
| 20260508025501 | 48 | 299 | 0.0 | 0.0 | 0.08 | 0.06 | 0.06 | 85 | 1010.8 |